Zurück zum Katalog

STARLINK-30885

AktivKommunikationVLEO
NORAD 58361·PAYLOAD·🇺🇸 United States

Gestartet Nov 18, 2023 von Cape Canaveral Space Force Station

Loading…

Nächste Überflüge (nächste 24 Stunden)

TLE

AktuellSource: CelesTrak SupGP

Epoche: Sep 15, 2026, 02:35 UTC

1 58361C 23177L   26258.10812500 -.00022071  00000+0 -79964-3 0  2582
2 58361  43.0042   0.7691 0001763 258.7233 248.5543 15.27580067    11

Verfolge STARLINK-30885 in Echtzeit mit AllMySat

Download on the App Store